Home   Weather   Ås   Past weeks

Flag for Norway Past Weather in Ås, Norway — Yesterday and Last 2 Weeks

Now
55 °F

Partly cloudy.


Feels Like: 49 °F
Forecast: 56 / 68 °F
Wind: 36 mph from Southwest

Location: Statfjord B

Current Time: Aug 31, 2016 at 11:44:28 PM

Latest Report: Aug 31, 2016 at 10:50 PM


Visibility: N/A

Pressure: 29.68 "Hg

Humidity: 94%

Dew Point: 54 °F

Location of ÅsLocation

Past Weather in Ås — Graph

°F

Ås Temperature Yesterday

Maximum temperature yesterday: 59 °F (at 2:20 PM)
Minimum temperature yesterday: 54 °F (at 12:20 AM)
Average temperature yesterday: 56 °F

High & Low Weather Summary for the Past Weeks

 TemperatureHumidityPressure
High63 °F (Aug 17, 10:20 AM)100% (Aug 17, 10:50 PM)30.24 "Hg (Aug 17, 10:50 PM)
Low50 °F (Aug 18, 5:50 AM)63% (Aug 17, 6:50 AM)29.65 "Hg (Aug 31, 2:20 PM)
Average55 °F91%29.96 "Hg
* Reported Aug 16 10:20 PM — Aug 31 10:20 PM, Ås, Weather by CustomWeather, © 2016

Note: Actual official high and low records may vary slightly from our data, if they occured in-between our weather recording intervals... More about our weather records

Advertising

Ås Weather History for the Previous 24 Hours

Scroll right to see more
 ConditionsComfort  
Time TempWeatherWind HumidityBarometerVisibility
10:20 PM
Wed, Aug 31
55 °FPassing clouds.36 mph94%29.68 "Hg6 mi
9:50 PM55 °FPassing clouds.35 mph94%29.68 "HgN/A
9:20 PM55 °FPartly sunny.35 mph88%29.68 "HgN/A
8:50 PM55 °FPassing clouds.35 mph88%29.68 "HgN/A
8:20 PM55 °FOvercast.35 mph88%29.65 "HgN/A
7:50 PM55 °FPartly sunny.32 mph88%29.65 "HgN/A
7:20 PM55 °FScattered clouds.36 mph88%29.65 "HgN/A
6:50 PM57 °FCool.33 mph82%29.65 "HgN/A
6:20 PM57 °FPassing clouds.33 mph88%29.65 "HgN/A
5:50 PM57 °FBroken clouds.35 mph88%29.65 "HgN/A
5:20 PM57 °FPartly sunny.32 mph88%29.65 "HgN/A
4:50 PM57 °FPartly sunny.32 mph88%29.65 "HgN/A
4:20 PM57 °FPassing clouds.33 mph94%29.65 "HgN/A
3:50 PM57 °FPassing clouds.35 mph88%29.65 "HgN/A
3:20 PM57 °FPartly sunny.35 mph88%29.65 "HgN/A
2:50 PM57 °FPartly sunny.36 mph94%29.65 "HgN/A
2:20 PM57 °FPartly sunny.33 mph94%29.65 "Hg5 mi
1:50 PM59 °FPartly sunny.33 mph88%29.68 "Hg6 mi
1:20 PM57 °FPartly sunny.32 mph94%29.68 "HgN/A
12:50 PM57 °FBroken clouds.30 mph88%29.68 "HgN/A
12:20 PM57 °FPartly sunny.31 mph94%29.68 "HgN/A
11:50 AM57 °FBroken clouds.32 mph88%29.68 "HgN/A
11:20 AM57 °FPartly sunny.33 mph94%29.68 "Hg6 mi
10:50 AM57 °FPartly sunny.33 mph94%29.68 "Hg6 mi
10:20 AM57 °FOvercast.35 mph94%29.68 "HgN/A
9:50 AM57 °FBroken clouds.37 mph94%29.68 "Hg6 mi
9:20 AM57 °FLight rain. More clouds than sun.36 mph94%29.68 "Hg6 mi
8:50 AM57 °FRain. Fog.39 mph100%29.68 "Hg2 mi
8:20 AM57 °FLight rain. Fog.38 mph94%29.68 "Hg1 mi
7:50 AM57 °FPartly sunny.37 mph94%29.71 "Hg5 mi
7:20 AM57 °FBroken clouds.40 mph94%29.71 "Hg5 mi
6:50 AM57 °FPassing clouds.39 mph94%29.71 "Hg5 mi
6:20 AM57 °FPassing clouds.40 mph94%29.71 "Hg5 mi
5:50 AM57 °FPassing clouds.39 mph100%29.71 "Hg5 mi
5:20 AM57 °FPartly cloudy.41 mph100%29.71 "Hg6 mi
4:50 AM57 °FPassing clouds.41 mph100%29.74 "Hg6 mi
4:20 AM57 °FPassing clouds.43 mph100%29.74 "Hg6 mi
3:50 AM57 °FPassing clouds.40 mph100%29.74 "Hg6 mi
3:20 AM57 °FPassing clouds.40 mph100%29.74 "HgN/A
2:50 AM57 °FLow clouds.40 mph100%29.77 "Hg6 mi
2:20 AM57 °FPassing clouds.39 mph100%29.80 "Hg5 mi
1:50 AM57 °FPassing clouds.43 mph100%29.80 "Hg5 mi
1:20 AM57 °FPassing clouds.43 mph94%29.80 "Hg3 mi
12:50 AM57 °FPassing clouds.39 mph94%29.83 "HgN/A
12:20 AM57 °FPassing clouds.37 mph94%29.86 "HgN/A
11:50 PM
Tue, Aug 30
57 °FPassing clouds.36 mph94%29.89 "HgN/A
11:20 PM57 °FPassing clouds.35 mph94%29.89 "HgN/A
Weather by CustomWeather, © 2016

See weather overviewHow to use our weather pages